Time,TemperatureF,DewpointF,PressureIn,WindDirection,WindDirectionDegrees,WindSpeedMPH,WindSpeedGustMPH,Humidity,HourlyPrecipIn,Conditions,Clouds,dailyrainin,SoftwareType,DateUTC
2013-01-26 00:02:00,28.6,14.1,30.23,SSW,193,0.0,0.0,54,0.00,,---,0.00,VWS V14.01,2013-01-26 07:02:00,
2013-01-26 00:08:00,28.4,14.3,30.20,SSW,193,0.0,0.0,55,0.00,,---,0.00,VWS V14.01,2013-01-26 07:08:00,
2013-01-26 00:13:00,28.2,14.1,30.20,SSW,195,0.0,0.0,55,0.00,,---,0.00,VWS V14.01,2013-01-26 07:13:00,
2013-01-26 00:18:00,28.2,14.6,30.20,SSW,201,0.0,0.0,56,0.00,,---,0.00,VWS V14.01,2013-01-26 07:18:00,
2013-01-26 00:23:00,28.2,14.6,30.20,SSW,201,0.0,0.0,56,0.00,,---,0.00,VWS V14.01,2013-01-26 07:23:00,
2013-01-26 00:29:00,28.2,14.6,30.20,SSW,201,0.0,0.0,56,0.00,,---,0.00,VWS V14.01,2013-01-26 07:29:00,
2013-01-26 00:34:00,28.2,14.6,30.17,SSW,201,0.0,0.0,56,0.00,,---,0.00,VWS V14.01,2013-01-26 07:34:00,
2013-01-26 00:40:00,28.2,14.1,30.17,SSW,201,0.0,0.0,55,0.00,,---,0.00,VWS V14.01,2013-01-26 07:40:00,
2013-01-26 00:46:00,28.2,14.1,30.17,SSW,201,0.0,0.0,55,0.00,,---,0.00,VWS V14.01,2013-01-26 07:46:00,
2013-01-26 00:51:00,28.2,14.1,30.20,SSW,201,0.0,0.0,55,0.00,,---,0.00,VWS V14.01,2013-01-26 07:51:00,
2013-01-26 00:57:00,28.2,14.1,30.20,SSW,201,0.0,0.0,55,0.00,,---,0.00,VWS V14.01,2013-01-26 07:57:00,
2013-01-26 01:02:00,28.2,14.1,30.20,SSW,201,0.0,0.0,55,0.00,,---,0.00,VWS V14.01,2013-01-26 08:02:00,
2013-01-26 01:08:00,28.0,13.6,30.20,SSW,201,0.0,0.0,54,0.00,,---,0.00,VWS V14.01,2013-01-26 08:08:00,
2013-01-26 01:14:00,27.9,13.8,30.20,SSW,201,0.0,0.0,55,0.00,,---,0.00,VWS V14.01,2013-01-26 08:14:00,
2013-01-26 01:19:00,27.9,13.8,30.20,SSW,201,0.0,0.0,55,0.00,,---,0.00,VWS V14.01,2013-01-26 08:19:00,
2013-01-26 01:25:00,27.9,13.8,30.20,SSW,201,0.0,0.0,55,0.00,,---,0.00,VWS V14.01,2013-01-26 08:25:00,
2013-01-26 01:30:00,27.7,13.6,30.20,SSW,201,0.0,0.0,55,0.00,,---,0.00,VWS V14.01,2013-01-26 08:30:00,
2013-01-26 01:36:00,27.7,13.6,30.20,SSW,201,0.0,0.0,55,0.00,,---,0.00,VWS V14.01,2013-01-26 08:36:00,
2013-01-26 01:42:00,27.7,13.6,30.20,SSW,201,0.0,0.0,55,0.00,,---,0.00,VWS V14.01,2013-01-26 08:42:00,
2013-01-26 01:47:00,27.5,13.5,30.20,SSW,211,0.0,0.0,55,0.00,,---,0.00,VWS V14.01,2013-01-26 08:47:00,
2013-01-26 01:52:00,27.5,13.5,30.17,SSW,211,0.0,0.0,55,0.00,,---,0.00,VWS V14.01,2013-01-26 08:52:00,
2013-01-26 01:58:00,27.5,13.5,30.17,SSW,211,0.0,0.0,55,0.00,,---,0.00,VWS V14.01,2013-01-26 08:58:00,
2013-01-26 02:04:00,27.3,13.3,30.17,SSW,211,0.0,0.0,55,0.00,,---,0.00,VWS V14.01,2013-01-26 09:04:00,
2013-01-26 02:09:00,27.3,13.3,30.17,SSW,211,0.0,0.0,55,0.00,,---,0.00,VWS V14.01,2013-01-26 09:09:00,
2013-01-26 02:15:00,27.3,13.3,30.17,SSW,211,0.0,0.0,55,0.00,,---,0.00,VWS V14.01,2013-01-26 09:15:00,
2013-01-26 02:20:00,27.1,13.1,30.17,SSW,211,0.0,0.0,55,0.00,,---,0.00,VWS V14.01,2013-01-26 09:20:00,
2013-01-26 02:26:00,27.1,13.5,30.17,SSW,211,0.0,0.0,56,0.00,,---,0.00,VWS V14.01,2013-01-26 09:26:00,
2013-01-26 02:32:00,27.0,13.4,30.17,SSW,211,0.0,0.0,56,0.00,,---,0.00,VWS V14.01,2013-01-26 09:32:00,
2013-01-26 02:37:00,27.0,13.4,30.17,SSW,211,0.0,0.0,56,0.00,,---,0.00,VWS V14.01,2013-01-26 09:37:00,
2013-01-26 02:43:00,27.0,13.0,30.17,SSW,211,0.0,0.0,55,0.00,,---,0.00,VWS V14.01,2013-01-26 09:43:00,
2013-01-26 02:48:00,26.8,12.8,30.17,SSW,211,0.0,0.0,55,0.00,,---,0.00,VWS V14.01,2013-01-26 09:48:00,
2013-01-26 02:54:00,26.6,12.6,30.17,SSW,211,0.0,0.0,55,0.00,,---,0.00,VWS V14.01,2013-01-26 09:54:00,
2013-01-26 02:59:00,26.6,12.6,30.17,SSW,211,0.0,0.0,55,0.00,,---,0.00,VWS V14.01,2013-01-26 09:59:00,
2013-01-26 03:05:00,26.6,12.6,30.17,SSW,211,0.0,0.0,55,0.00,,---,0.00,VWS V14.01,2013-01-26 10:05:00,
2013-01-26 03:10:00,26.6,12.6,30.17,SSW,211,0.0,0.0,55,0.00,,---,0.00,VWS V14.01,2013-01-26 10:10:00,
2013-01-26 03:15:00,26.6,12.6,30.17,SSW,211,0.0,0.0,55,0.00,,---,0.00,VWS V14.01,2013-01-26 10:15:00,
2013-01-26 03:20:00,26.6,13.0,30.14,SSW,211,0.0,0.0,56,0.00,,---,0.00,VWS V14.01,2013-01-26 10:20:00,
2013-01-26 03:26:00,26.4,12.9,30.14,SSW,211,0.0,0.0,56,0.00,,---,0.00,VWS V14.01,2013-01-26 10:26:00,
2013-01-26 03:32:00,26.2,12.7,30.14,SSW,211,0.0,0.0,56,0.00,,---,0.00,VWS V14.01,2013-01-26 10:32:00,
2013-01-26 03:37:00,26.2,12.7,30.17,SSW,211,0.0,0.0,56,0.00,,---,0.00,VWS V14.01,2013-01-26 10:37:00,
2013-01-26 03:43:00,26.1,12.1,30.17,SSW,211,0.0,0.0,55,0.00,,---,0.00,VWS V14.01,2013-01-26 10:43:00,
2013-01-26 03:48:00,25.9,12.4,30.17,SSW,211,0.0,0.0,56,0.00,,---,0.00,VWS V14.01,2013-01-26 10:48:00,
2013-01-26 03:54:00,25.9,12.4,30.17,SSW,197,0.0,0.0,56,0.00,,---,0.00,VWS V14.01,2013-01-26 10:54:00,
2013-01-26 04:00:00,25.9,12.4,30.17,SSW,197,0.0,0.0,56,0.00,,---,0.00,VWS V14.01,2013-01-26 11:00:00,
2013-01-26 04:05:00,25.5,11.6,30.17,SSW,197,0.0,0.0,55,0.00,,---,0.00,VWS V14.01,2013-01-26 11:05:00,
2013-01-26 04:11:00,25.3,11.9,30.17,SSW,197,0.0,0.0,56,0.00,,---,0.00,VWS V14.01,2013-01-26 11:11:00,
2013-01-26 04:16:00,25.3,11.9,30.17,SSW,197,0.0,0.0,56,0.00,,---,0.00,VWS V14.01,2013-01-26 11:16:00,
2013-01-26 04:22:00,25.2,11.7,30.14,SSW,195,0.0,0.0,56,0.00,,---,0.00,VWS V14.01,2013-01-26 11:22:00,
2013-01-26 04:28:00,25.0,11.5,30.14,SSW,195,0.0,0.0,56,0.00,,---,0.00,VWS V14.01,2013-01-26 11:28:00,
2013-01-26 04:33:00,25.0,11.9,30.14,South,186,0.0,0.0,57,0.00,,---,0.00,VWS V14.01,2013-01-26 11:33:00,
2013-01-26 04:38:00,25.0,11.9,30.14,SSE,156,0.0,0.0,57,0.00,,---,0.00,VWS V14.01,2013-01-26 11:38:00,
2013-01-26 04:44:00,25.0,11.9,30.14,SSE,156,0.0,0.0,57,0.00,,---,0.00,VWS V14.01,2013-01-26 11:44:00,
2013-01-26 04:50:00,25.0,11.9,30.14,ESE,122,0.0,0.0,57,0.00,,---,0.00,VWS V14.01,2013-01-26 11:50:00,
2013-01-26 04:56:00,25.0,11.9,30.14,ESE,122,0.0,0.0,57,0.00,,---,0.00,VWS V14.01,2013-01-26 11:56:00,
2013-01-26 05:02:00,25.0,12.3,30.14,ESE,122,0.0,0.0,58,0.00,,---,0.00,VWS V14.01,2013-01-26 12:02:00,
2013-01-26 05:08:00,25.0,12.3,30.14,SE,131,0.0,0.0,58,0.00,,---,0.00,VWS V14.01,2013-01-26 12:08:00,
2013-01-26 05:14:00,25.0,12.3,30.14,SE,131,0.0,0.0,58,0.00,,---,0.00,VWS V14.01,2013-01-26 12:14:00,
2013-01-26 05:20:00,25.0,12.3,30.14,SE,131,0.0,0.0,58,0.00,,---,0.00,VWS V14.01,2013-01-26 12:20:00,
2013-01-26 05:25:00,25.0,12.3,30.14,SE,131,0.0,0.0,58,0.00,,---,0.00,VWS V14.01,2013-01-26 12:25:00,
2013-01-26 05:30:00,25.0,12.3,30.14,SE,131,0.0,0.0,58,0.00,,---,0.00,VWS V14.01,2013-01-26 12:30:00,
2013-01-26 05:36:00,24.8,12.1,30.14,SE,131,0.0,0.0,58,0.00,,---,0.00,VWS V14.01,2013-01-26 12:36:00,
2013-01-26 05:42:00,24.8,12.1,30.14,SE,131,0.0,0.0,58,0.00,,---,0.00,VWS V14.01,2013-01-26 12:42:00,
2013-01-26 05:47:00,24.8,12.1,30.14,SE,131,0.0,0.0,58,0.00,,---,0.00,VWS V14.01,2013-01-26 12:47:00,
2013-01-26 05:53:00,24.6,12.0,30.14,SE,131,0.0,0.0,58,0.00,,---,0.00,VWS V14.01,2013-01-26 12:53:00,
2013-01-26 05:59:00,24.6,12.0,30.14,SSE,158,0.0,0.0,58,0.00,,---,0.00,VWS V14.01,2013-01-26 12:59:00,
2013-01-26 06:05:00,24.6,12.0,30.14,SSE,158,0.0,0.0,58,0.00,,---,0.00,VWS V14.01,2013-01-26 13:05:00,
2013-01-26 06:11:00,24.6,12.0,30.14,SSE,158,0.0,0.0,58,0.00,,---,0.00,VWS V14.01,2013-01-26 13:11:00,
2013-01-26 06:17:00,24.4,11.8,30.14,SSE,158,0.0,0.0,58,0.00,,---,0.00,VWS V14.01,2013-01-26 13:17:00,
2013-01-26 06:23:00,24.4,11.8,30.14,SSE,158,0.0,0.0,58,0.00,,---,0.00,VWS V14.01,2013-01-26 13:23:00,
2013-01-26 06:28:00,24.4,12.2,30.14,SSW,213,0.0,0.0,59,0.00,,---,0.00,VWS V14.01,2013-01-26 13:28:00,
2013-01-26 06:34:00,24.3,12.0,30.14,SSW,213,0.0,0.0,59,0.00,,---,0.00,VWS V14.01,2013-01-26 13:34:00,
2013-01-26 06:40:00,24.3,12.0,30.14,SSW,213,0.0,0.0,59,0.00,,---,0.00,VWS V14.01,2013-01-26 13:40:00,
2013-01-26 06:45:00,24.3,12.0,30.14,SSW,213,0.0,0.0,59,0.00,,---,0.00,VWS V14.01,2013-01-26 13:45:00,
2013-01-26 06:51:00,24.3,12.0,30.11,SSW,213,0.0,0.0,59,0.00,,---,0.00,VWS V14.01,2013-01-26 13:51:00,
2013-01-26 06:56:00,24.3,12.0,30.11,SSW,213,0.0,0.0,59,0.00,,---,0.00,VWS V14.01,2013-01-26 13:56:00,
2013-01-26 07:01:00,24.3,12.0,30.11,SSW,213,0.0,0.0,59,0.00,,---,0.00,VWS V14.01,2013-01-26 14:01:00,
2013-01-26 07:06:00,24.3,12.0,30.11,SSW,213,0.0,0.0,59,0.00,,---,0.00,VWS V14.01,2013-01-26 14:06:00,
2013-01-26 07:12:00,24.3,12.0,30.11,SSW,213,0.0,0.0,59,0.00,,---,0.00,VWS V14.01,2013-01-26 14:12:00,
2013-01-26 07:17:00,24.3,12.0,30.11,SSW,213,0.0,0.0,59,0.00,,---,0.00,VWS V14.01,2013-01-26 14:17:00,
2013-01-26 07:22:00,24.1,11.8,30.11,SSW,213,0.0,0.0,59,0.00,,---,0.00,VWS V14.01,2013-01-26 14:22:00,
2013-01-26 07:27:00,24.1,11.8,30.11,SSW,213,0.0,0.0,59,0.00,,---,0.00,VWS V14.01,2013-01-26 14:27:00,
2013-01-26 07:33:00,24.1,11.8,30.11,SSW,213,0.0,0.0,59,0.00,,---,0.00,VWS V14.01,2013-01-26 14:33:00,
2013-01-26 07:38:00,24.1,11.8,30.11,SSW,213,0.0,0.0,59,0.00,,---,0.00,VWS V14.01,2013-01-26 14:38:00,
2013-01-26 07:43:00,24.1,11.8,30.11,SSW,213,0.0,0.0,59,0.00,,---,0.00,VWS V14.01,2013-01-26 14:43:00,
2013-01-26 07:48:00,24.1,12.2,30.11,SSW,213,0.0,0.0,60,0.00,,---,0.00,VWS V14.01,2013-01-26 14:48:00,
2013-01-26 07:54:00,24.1,12.2,30.11,South,178,2.2,3.1,60,0.00,,---,0.00,VWS V14.01,2013-01-26 14:54:00,
2013-01-26 07:59:00,24.4,12.9,30.11,South,176,0.0,0.0,61,0.00,,---,0.00,VWS V14.01,2013-01-26 14:59:00,
2013-01-26 08:05:00,24.4,12.9,30.11,South,176,0.0,0.0,61,0.00,,---,0.00,VWS V14.01,2013-01-26 15:05:00,
2013-01-26 08:11:00,24.4,12.6,30.11,South,178,0.0,0.0,60,0.00,,---,0.00,VWS V14.01,2013-01-26 15:11:00,
2013-01-26 08:16:00,24.4,12.9,30.11,South,178,0.0,0.0,61,0.00,,---,0.00,VWS V14.01,2013-01-26 15:16:00,
2013-01-26 08:22:00,24.4,12.9,30.11,South,178,0.0,0.0,61,0.00,,---,0.00,VWS V14.01,2013-01-26 15:22:00,
2013-01-26 08:27:00,24.4,12.9,30.11,South,178,0.0,0.0,61,0.00,,---,0.00,VWS V14.01,2013-01-26 15:27:00,
2013-01-26 08:33:00,24.4,12.9,30.11,South,178,0.0,0.0,61,0.00,,---,0.00,VWS V14.01,2013-01-26 15:33:00,
2013-01-26 08:38:00,24.6,13.1,30.11,South,178,0.0,0.0,61,0.00,,---,0.00,VWS V14.01,2013-01-26 15:38:00,
2013-01-26 08:43:00,24.8,13.3,30.11,South,178,0.0,0.0,61,0.00,,---,0.00,VWS V14.01,2013-01-26 15:43:00,
2013-01-26 08:48:00,25.0,13.4,30.11,South,178,0.0,0.0,61,0.00,,---,0.00,VWS V14.01,2013-01-26 15:48:00,
2013-01-26 08:54:00,25.2,13.6,30.11,South,178,0.0,0.0,61,0.00,,---,0.00,VWS V14.01,2013-01-26 15:54:00,
2013-01-26 08:59:00,25.3,13.8,30.11,South,178,0.0,0.0,61,0.00,,---,0.00,VWS V14.01,2013-01-26 15:59:00,
2013-01-26 09:05:00,25.5,14.0,30.11,South,178,0.0,0.0,61,0.00,,---,0.00,VWS V14.01,2013-01-26 16:05:00,
2013-01-26 09:11:00,25.9,14.3,30.11,South,178,0.0,0.0,61,0.00,,---,0.00,VWS V14.01,2013-01-26 16:11:00,
2013-01-26 09:16:00,26.1,14.8,30.11,South,178,0.0,0.0,62,0.00,,---,0.00,VWS V14.01,2013-01-26 16:16:00,
2013-01-26 09:23:00,26.4,15.6,30.11,South,178,0.0,0.0,63,0.00,,---,0.00,VWS V14.01,2013-01-26 16:23:00,
2013-01-26 09:28:00,26.8,16.2,30.11,South,178,0.0,0.0,64,0.00,,---,0.00,VWS V14.01,2013-01-26 16:28:00,
2013-01-26 09:33:00,27.1,17.0,30.11,SSW,211,0.0,0.0,65,0.00,,---,0.00,VWS V14.01,2013-01-26 16:33:00,
2013-01-26 09:39:00,27.5,17.3,30.11,SSW,211,0.0,0.0,65,0.00,,---,0.00,VWS V14.01,2013-01-26 16:39:00,
2013-01-26 09:44:00,27.7,17.1,30.11,SSW,211,0.0,0.0,64,0.00,,---,0.00,VWS V14.01,2013-01-26 16:44:00,
2013-01-26 09:50:00,28.0,17.8,30.11,SSW,211,0.0,0.0,65,0.00,,---,0.00,VWS V14.01,2013-01-26 16:50:00,
2013-01-26 09:55:00,28.4,18.5,30.11,SSW,212,0.0,0.0,66,0.00,,---,0.00,VWS V14.01,2013-01-26 16:55:00,
2013-01-26 10:01:00,28.6,18.3,30.11,SW,220,0.0,0.0,65,0.00,,---,0.00,VWS V14.01,2013-01-26 17:01:00,
2013-01-26 10:06:00,28.9,19.0,30.08,SW,225,0.0,0.0,66,0.00,,---,0.00,VWS V14.01,2013-01-26 17:06:00,
2013-01-26 10:11:00,29.3,19.4,30.08,SW,225,0.0,0.0,66,0.00,,---,0.00,VWS V14.01,2013-01-26 17:11:00,
2013-01-26 10:16:00,29.5,19.5,30.08,WSW,248,0.0,0.0,66,0.00,,---,0.00,VWS V14.01,2013-01-26 17:16:00,
2013-01-26 10:22:00,29.8,20.2,30.11,West,276,0.0,0.0,67,0.00,,---,0.00,VWS V14.01,2013-01-26 17:22:00,
2013-01-26 10:27:00,30.0,21.1,30.11,West,271,0.0,0.0,69,0.00,,---,0.00,VWS V14.01,2013-01-26 17:27:00,
2013-01-26 10:33:00,30.2,21.9,30.11,West,279,3.6,4.0,71,0.00,,---,0.00,VWS V14.01,2013-01-26 17:33:00,
2013-01-26 10:40:00,30.2,21.9,30.08,West,280,0.0,0.0,71,0.00,,---,0.00,VWS V14.01,2013-01-26 17:40:00,
2013-01-26 10:45:00,30.2,21.9,30.08,West,280,0.0,0.0,71,0.00,,---,0.00,VWS V14.01,2013-01-26 17:45:00,
2013-01-26 10:50:00,30.4,22.1,30.08,West,280,0.0,0.0,71,0.00,,---,0.00,VWS V14.01,2013-01-26 17:50:00,
2013-01-26 10:57:00,30.4,22.1,30.08,West,280,0.0,0.0,71,0.00,,---,0.00,VWS V14.01,2013-01-26 17:57:00,
2013-01-26 11:02:00,30.6,22.3,30.08,West,280,0.0,0.0,71,0.00,,---,0.00,VWS V14.01,2013-01-26 18:02:00,
2013-01-26 11:08:00,30.7,22.8,30.08,West,280,0.0,0.0,72,0.00,,---,0.00,VWS V14.01,2013-01-26 18:08:00,
2013-01-26 11:13:00,30.9,23.3,30.08,West,280,0.0,0.0,73,0.00,,---,0.00,VWS V14.01,2013-01-26 18:13:00,
2013-01-26 11:18:00,31.1,23.5,30.08,West,280,0.0,0.0,73,0.00,,---,0.00,VWS V14.01,2013-01-26 18:18:00,
2013-01-26 11:25:00,31.5,24.1,30.08,NW,313,0.0,0.0,74,0.00,,---,0.00,VWS V14.01,2013-01-26 18:25:00,
2013-01-26 11:30:00,31.8,24.5,30.08,NNW,329,0.0,0.0,74,0.00,,---,0.00,VWS V14.01,2013-01-26 18:30:00,
2013-01-26 11:36:00,32.2,25.2,30.05,NNW,331,0.0,0.0,75,0.00,,---,0.00,VWS V14.01,2013-01-26 18:36:00,
2013-01-26 11:41:00,32.2,25.2,30.05,North,353,0.0,0.0,75,0.00,,---,0.00,VWS V14.01,2013-01-26 18:41:00,
2013-01-26 11:47:00,32.5,25.5,30.05,NNW,348,0.0,0.0,75,0.00,,---,0.00,VWS V14.01,2013-01-26 18:47:00,
2013-01-26 11:53:00,32.7,26.0,30.05,NNW,333,0.0,0.0,76,0.00,,---,0.00,VWS V14.01,2013-01-26 18:53:00,
2013-01-26 11:58:00,32.9,26.2,30.05,NNW,327,0.0,0.0,76,0.00,,---,0.00,VWS V14.01,2013-01-26 18:58:00,
2013-01-26 12:04:00,33.1,26.7,30.05,NNW,327,0.0,0.0,77,0.00,,---,0.00,VWS V14.01,2013-01-26 19:04:00,
2013-01-26 12:09:00,33.3,26.8,30.05,NNW,329,0.0,0.0,77,0.00,,---,0.00,VWS V14.01,2013-01-26 19:09:00,
2013-01-26 12:14:00,33.4,27.0,30.05,NNW,340,0.0,0.0,77,0.00,,---,0.00,VWS V14.01,2013-01-26 19:14:00,
2013-01-26 12:19:00,33.6,27.2,30.02,NNW,335,0.0,0.0,77,0.00,,---,0.00,VWS V14.01,2013-01-26 19:19:00,
2013-01-26 12:25:00,33.6,27.2,30.02,NNW,339,0.0,0.0,77,0.00,,---,0.00,VWS V14.01,2013-01-26 19:25:00,
2013-01-26 12:30:00,33.6,27.2,30.02,NNW,338,0.0,0.0,77,0.00,,---,0.00,VWS V14.01,2013-01-26 19:30:00,
2013-01-26 12:36:00,33.8,27.4,30.02,North,0,0.0,0.0,77,0.00,,---,0.00,VWS V14.01,2013-01-26 19:36:00,
2013-01-26 12:41:00,33.8,27.4,30.02,NNW,338,0.0,0.0,77,0.00,,---,0.00,VWS V14.01,2013-01-26 19:41:00,
2013-01-26 12:47:00,34.0,27.5,30.02,NNW,346,0.0,0.0,77,0.00,,---,0.00,VWS V14.01,2013-01-26 19:47:00,
2013-01-26 12:53:00,34.2,27.7,30.02,NNW,341,0.0,0.0,77,0.00,,---,0.00,VWS V14.01,2013-01-26 19:53:00,
2013-01-26 12:59:00,34.3,27.9,30.02,NNW,336,0.0,0.0,77,0.00,,---,0.00,VWS V14.01,2013-01-26 19:59:00,
2013-01-26 13:04:00,34.3,27.9,29.99,NNW,334,0.0,0.0,77,0.00,,---,0.00,VWS V14.01,2013-01-26 20:04:00,
2013-01-26 13:10:00,34.5,28.1,29.99,NNW,334,0.0,0.0,77,0.00,,---,0.00,VWS V14.01,2013-01-26 20:10:00,
2013-01-26 13:15:00,34.5,28.1,29.99,NNW,334,0.0,0.0,77,0.00,,---,0.00,VWS V14.01,2013-01-26 20:15:00,
2013-01-26 13:20:00,34.7,28.2,29.99,NNW,338,3.1,4.0,77,0.00,,---,0.00,VWS V14.01,2013-01-26 20:20:00,
2013-01-26 13:25:00,34.7,28.2,29.99,NNW,339,0.0,0.0,77,0.00,,---,0.00,VWS V14.01,2013-01-26 20:25:00,
2013-01-26 13:30:00,34.9,28.4,29.99,NNW,339,0.0,0.0,77,0.00,,---,0.00,VWS V14.01,2013-01-26 20:30:00,
2013-01-26 13:35:00,34.9,28.4,29.99,NNW,339,0.0,0.0,77,0.00,,---,0.00,VWS V14.01,2013-01-26 20:35:00,
2013-01-26 13:40:00,34.9,28.4,29.99,NNW,339,0.0,0.0,77,0.00,,---,0.00,VWS V14.01,2013-01-26 20:40:00,
2013-01-26 13:45:00,34.9,28.1,29.99,NNW,339,0.0,0.0,76,0.00,,---,0.00,VWS V14.01,2013-01-26 20:45:00,
2013-01-26 13:50:00,34.9,28.1,29.99,NNW,339,0.0,0.0,76,0.00,,---,0.00,VWS V14.01,2013-01-26 20:50:00,
2013-01-26 13:55:00,34.9,28.1,29.99,NNW,339,0.0,0.0,76,0.00,,---,0.00,VWS V14.01,2013-01-26 20:55:00,
2013-01-26 14:00:00,34.9,28.1,29.99,NNW,339,0.0,0.0,76,0.00,,---,0.00,VWS V14.01,2013-01-26 21:00:00,
2013-01-26 14:05:00,34.9,28.1,29.99,NNW,339,0.0,0.0,76,0.00,,---,0.00,VWS V14.01,2013-01-26 21:05:00,
2013-01-26 14:10:00,34.7,27.9,29.99,NNW,332,0.0,0.0,76,0.00,,---,0.00,VWS V14.01,2013-01-26 21:10:00,
2013-01-26 14:15:00,34.7,27.9,29.99,NNW,332,0.0,0.0,76,0.00,,---,0.00,VWS V14.01,2013-01-26 21:15:00,
2013-01-26 14:20:00,34.5,27.8,29.99,NNW,332,0.0,0.0,76,0.00,,---,0.00,VWS V14.01,2013-01-26 21:20:00,
2013-01-26 14:25:00,34.5,27.8,29.99,NNW,332,0.0,0.0,76,0.00,,---,0.00,VWS V14.01,2013-01-26 21:25:00,
2013-01-26 14:30:00,34.5,27.8,29.99,NNW,332,0.0,0.0,76,0.00,,---,0.00,VWS V14.01,2013-01-26 21:30:00,
2013-01-26 14:35:00,34.5,27.8,29.99,NNW,332,0.0,0.0,76,0.00,,---,0.00,VWS V14.01,2013-01-26 21:35:00,
2013-01-26 14:40:00,34.5,27.8,29.99,NNW,332,0.0,0.0,76,0.00,,---,0.00,VWS V14.01,2013-01-26 21:40:00,
2013-01-26 14:45:00,34.3,27.6,29.99,NNW,332,0.0,0.0,76,0.00,,---,0.00,VWS V14.01,2013-01-26 21:45:00,
2013-01-26 14:50:00,34.3,27.6,29.96,NNW,332,0.0,0.0,76,0.00,,---,0.00,VWS V14.01,2013-01-26 21:50:00,
2013-01-26 14:55:00,34.3,27.6,29.96,NNW,332,0.0,0.0,76,0.00,,---,0.00,VWS V14.01,2013-01-26 21:55:00,
2013-01-26 15:00:00,34.3,27.6,29.96,NNW,332,0.0,0.0,76,0.00,,---,0.00,VWS V14.01,2013-01-26 22:00:00,
2013-01-26 15:05:00,34.3,27.6,29.96,NNW,332,0.0,0.0,76,0.00,,---,0.00,VWS V14.01,2013-01-26 22:05:00,
2013-01-26 15:10:00,34.3,27.6,29.96,NNW,332,0.0,0.0,76,0.00,,---,0.00,VWS V14.01,2013-01-26 22:10:00,
2013-01-26 15:15:00,34.3,27.6,29.96,NNW,332,0.0,0.0,76,0.00,,---,0.00,VWS V14.01,2013-01-26 22:15:00,
2013-01-26 15:20:00,34.2,27.4,29.96,NNW,332,0.0,0.0,76,0.00,,---,0.00,VWS V14.01,2013-01-26 22:20:00,
2013-01-26 15:25:00,34.2,27.4,29.96,NNW,332,0.0,0.0,76,0.00,,---,0.00,VWS V14.01,2013-01-26 22:25:00,
2013-01-26 15:30:00,34.0,27.2,29.96,NNW,332,0.0,0.0,76,0.00,,---,0.00,VWS V14.01,2013-01-26 22:30:00,
2013-01-26 15:35:00,34.0,27.2,29.96,NNW,332,0.0,0.0,76,0.00,,---,0.00,VWS V14.01,2013-01-26 22:35:00,
2013-01-26 15:40:00,34.0,27.2,29.96,NNW,332,0.0,0.0,76,0.00,,---,0.00,VWS V14.01,2013-01-26 22:40:00,
2013-01-26 15:45:00,34.0,27.2,29.96,NNW,332,0.0,0.0,76,0.00,,---,0.00,VWS V14.01,2013-01-26 22:45:00,
2013-01-26 15:50:00,34.0,27.2,29.96,NNW,332,0.0,0.0,76,0.00,,---,0.00,VWS V14.01,2013-01-26 22:50:00,
2013-01-26 15:55:00,34.0,27.2,29.96,NNW,332,0.0,0.0,76,0.00,,---,0.00,VWS V14.01,2013-01-26 22:55:00,
2013-01-26 16:00:00,33.8,27.0,29.96,NNW,332,0.0,0.0,76,0.00,,---,0.00,VWS V14.01,2013-01-26 23:00:00,
2013-01-26 16:05:00,33.8,27.0,29.96,NNW,332,0.0,0.0,76,0.00,,---,0.00,VWS V14.01,2013-01-26 23:05:00,
2013-01-26 16:10:00,33.8,27.0,29.96,NNW,332,0.0,0.0,76,0.00,,---,0.00,VWS V14.01,2013-01-26 23:10:00,
2013-01-26 16:15:00,33.6,26.9,29.96,NNW,332,0.0,0.0,76,0.00,,---,0.00,VWS V14.01,2013-01-26 23:15:00,
2013-01-26 16:20:00,33.6,26.9,29.93,NNW,332,0.0,0.0,76,0.00,,---,0.00,VWS V14.01,2013-01-26 23:20:00,
2013-01-26 16:25:00,33.6,27.2,29.93,NNW,332,0.0,0.0,77,0.00,,---,0.00,VWS V14.01,2013-01-26 23:25:00,
2013-01-26 16:30:00,33.6,27.2,29.93,NNW,332,0.0,0.0,77,0.00,,---,0.00,VWS V14.01,2013-01-26 23:30:00,
2013-01-26 16:35:00,33.6,27.2,29.93,NNW,332,0.0,0.0,77,0.00,,---,0.00,VWS V14.01,2013-01-26 23:35:00,
2013-01-26 16:40:00,33.4,27.0,29.93,NNW,332,0.0,0.0,77,0.00,,---,0.00,VWS V14.01,2013-01-26 23:40:00,
2013-01-26 16:45:00,33.4,27.0,29.93,NNW,332,0.0,0.0,77,0.00,,---,0.00,VWS V14.01,2013-01-26 23:45:00,
2013-01-26 16:50:00,33.4,27.0,29.93,NNW,332,0.0,0.0,77,0.00,,---,0.00,VWS V14.01,2013-01-26 23:50:00,
2013-01-26 16:55:00,33.3,26.8,29.93,NNW,332,0.0,0.0,77,0.00,,---,0.00,VWS V14.01,2013-01-26 23:55:00,
2013-01-26 17:00:00,33.3,26.8,29.93,NNW,332,0.0,0.0,77,0.00,,---,0.00,VWS V14.01,2013-01-27 00:00:00,
2013-01-26 17:05:00,33.1,26.7,29.93,NNW,332,0.0,0.0,77,0.00,,---,0.00,VWS V14.01,2013-01-27 00:05:00,
2013-01-26 17:10:00,33.1,26.7,29.93,NNW,332,0.0,0.0,77,0.00,,---,0.00,VWS V14.01,2013-01-27 00:10:00,
2013-01-26 17:15:00,32.9,26.5,29.93,NNW,332,0.0,0.0,77,0.00,,---,0.00,VWS V14.01,2013-01-27 00:15:00,
2013-01-26 17:20:00,32.9,26.5,29.93,NNW,332,0.0,0.0,77,0.00,,---,0.00,VWS V14.01,2013-01-27 00:20:00,
2013-01-26 17:25:00,32.9,26.8,29.93,NNW,332,0.0,0.0,78,0.00,,---,0.00,VWS V14.01,2013-01-27 00:25:00,
2013-01-26 17:30:00,32.9,26.8,29.93,NNW,332,0.0,0.0,78,0.00,,---,0.00,VWS V14.01,2013-01-27 00:30:00,
2013-01-26 17:35:00,32.7,26.6,29.93,NNW,332,0.0,0.0,78,0.00,,---,0.00,VWS V14.01,2013-01-27 00:35:00,
2013-01-26 17:40:00,32.7,26.6,29.93,NNW,332,0.0,0.0,78,0.00,,---,0.00,VWS V14.01,2013-01-27 00:40:00,
2013-01-26 17:45:00,32.7,26.6,29.93,NNW,332,0.0,0.0,78,0.00,,---,0.00,VWS V14.01,2013-01-27 00:45:00,
2013-01-26 17:50:00,32.7,26.6,29.93,NNW,332,0.0,0.0,78,0.00,,---,0.00,VWS V14.01,2013-01-27 00:50:00,
2013-01-26 17:55:00,32.7,26.6,29.93,NNW,332,0.0,0.0,78,0.00,,---,0.00,VWS V14.01,2013-01-27 00:55:00,
2013-01-26 18:00:00,32.7,26.6,29.93,NNW,332,0.0,0.0,78,0.00,,---,0.00,VWS V14.01,2013-01-27 01:00:00,
2013-01-26 18:05:00,32.7,26.6,29.93,NNW,332,0.0,0.0,78,0.00,,---,0.00,VWS V14.01,2013-01-27 01:05:00,
2013-01-26 18:11:00,32.7,26.6,29.93,NNW,332,0.0,0.0,78,0.00,,---,0.00,VWS V14.01,2013-01-27 01:11:00,
2013-01-26 18:17:00,32.7,26.9,29.93,NNW,332,0.0,0.0,79,0.00,,---,0.00,VWS V14.01,2013-01-27 01:17:00,
2013-01-26 18:23:00,32.5,26.8,29.93,NNW,332,0.0,0.0,79,0.00,,---,0.00,VWS V14.01,2013-01-27 01:23:00,
2013-01-26 18:29:00,32.5,26.8,29.93,NNW,332,0.0,0.0,79,0.00,,---,0.00,VWS V14.01,2013-01-27 01:29:00,
2013-01-26 18:35:00,32.4,26.6,29.93,WSW,237,0.0,0.0,79,0.00,,---,0.00,VWS V14.01,2013-01-27 01:35:00,
2013-01-26 18:40:00,32.4,26.6,29.93,SSW,204,0.0,0.0,79,0.00,,---,0.00,VWS V14.01,2013-01-27 01:40:00,
2013-01-26 18:46:00,32.4,26.6,29.93,SSW,204,0.0,0.0,79,0.00,,---,0.00,VWS V14.01,2013-01-27 01:46:00,
2013-01-26 18:51:00,32.4,26.6,29.93,SSW,204,0.0,0.0,79,0.00,,---,0.00,VWS V14.01,2013-01-27 01:51:00,
2013-01-26 18:56:00,32.4,26.6,29.93,SSW,204,0.0,0.0,79,0.00,,---,0.00,VWS V14.01,2013-01-27 01:56:00,
2013-01-26 19:02:00,32.4,26.9,29.93,SSW,204,0.0,0.0,80,0.00,,---,0.00,VWS V14.01,2013-01-27 02:02:00,
2013-01-26 19:07:00,32.5,27.1,29.93,SSW,204,0.0,0.0,80,0.00,,---,0.00,VWS V14.01,2013-01-27 02:07:00,
2013-01-26 19:12:00,32.5,27.1,29.93,SSW,204,0.0,0.0,80,0.00,,---,0.00,VWS V14.01,2013-01-27 02:12:00,
2013-01-26 19:18:00,32.7,27.2,29.93,SSW,204,0.0,0.0,80,0.00,,---,0.00,VWS V14.01,2013-01-27 02:18:00,
2013-01-26 19:24:00,32.7,27.5,29.93,SSW,204,0.0,0.0,81,0.00,,---,0.00,VWS V14.01,2013-01-27 02:24:00,
2013-01-26 19:29:00,32.7,27.8,29.93,SSW,204,0.0,0.0,82,0.00,,---,0.00,VWS V14.01,2013-01-27 02:29:00,
2013-01-26 19:34:00,32.7,27.8,29.93,SSW,204,0.0,0.0,82,0.00,,---,0.00,VWS V14.01,2013-01-27 02:34:00,
2013-01-26 19:40:00,32.7,27.8,29.93,SSW,204,0.0,0.0,82,0.00,,---,0.00,VWS V14.01,2013-01-27 02:40:00,
2013-01-26 19:45:00,32.9,28.3,29.93,SW,220,0.0,0.0,83,0.00,,---,0.00,VWS V14.01,2013-01-27 02:45:00,
2013-01-26 19:51:00,32.9,28.3,29.90,SW,214,0.0,0.0,83,0.00,,---,0.00,VWS V14.01,2013-01-27 02:51:00,
2013-01-26 19:57:00,33.1,28.5,29.90,SW,214,0.0,0.0,83,0.00,,---,0.00,VWS V14.01,2013-01-27 02:57:00,
2013-01-26 20:02:00,33.1,28.5,29.90,SW,214,0.0,0.0,83,0.00,,---,0.00,VWS V14.01,2013-01-27 03:02:00,
2013-01-26 20:07:00,33.1,28.5,29.90,SW,214,0.0,0.0,83,0.00,,---,0.00,VWS V14.01,2013-01-27 03:07:00,
2013-01-26 20:13:00,33.1,28.5,29.90,SSW,202,0.0,0.0,83,0.00,,---,0.00,VWS V14.01,2013-01-27 03:13:00,
2013-01-26 20:19:00,33.1,28.5,29.90,SSW,199,0.0,0.0,83,0.00,,---,0.00,VWS V14.01,2013-01-27 03:19:00,
2013-01-26 20:24:00,33.3,29.0,29.90,SSW,192,0.0,0.0,84,0.00,,---,0.00,VWS V14.01,2013-01-27 03:24:00,
2013-01-26 20:30:00,33.3,29.0,29.90,SE,142,0.0,0.0,84,0.00,,---,0.00,VWS V14.01,2013-01-27 03:30:00,
2013-01-26 20:35:00,33.4,29.1,29.90,SE,144,0.0,0.0,84,0.00,,---,0.00,VWS V14.01,2013-01-27 03:35:00,
2013-01-26 20:40:00,33.4,29.1,29.90,SE,139,0.0,0.0,84,0.00,,---,0.00,VWS V14.01,2013-01-27 03:40:00,
2013-01-26 20:46:00,33.3,29.0,29.90,SE,127,0.0,0.0,84,0.00,,---,0.00,VWS V14.01,2013-01-27 03:46:00,
2013-01-26 20:52:00,33.3,29.0,29.90,SE,127,0.0,0.0,84,0.00,,---,0.00,VWS V14.01,2013-01-27 03:52:00,
2013-01-26 20:57:00,33.1,28.8,29.90,ESE,103,0.0,0.0,84,0.00,,---,0.00,VWS V14.01,2013-01-27 03:57:00,
2013-01-26 21:03:00,33.1,28.8,29.90,ESE,103,0.0,0.0,84,0.00,,---,0.00,VWS V14.01,2013-01-27 04:03:00,
2013-01-26 21:08:00,32.9,28.6,29.90,ESE,103,0.0,0.0,84,0.00,,---,0.00,VWS V14.01,2013-01-27 04:08:00,
2013-01-26 21:13:00,32.9,28.6,29.90,ESE,103,0.0,0.0,84,0.00,,---,0.00,VWS V14.01,2013-01-27 04:13:00,
2013-01-26 21:19:00,32.9,28.6,29.90,ESE,103,0.0,0.0,84,0.00,,---,0.00,VWS V14.01,2013-01-27 04:19:00,
2013-01-26 21:25:00,32.7,28.4,29.90,ESE,103,0.0,0.0,84,0.00,,---,0.00,VWS V14.01,2013-01-27 04:25:00,
2013-01-26 21:31:00,32.7,28.4,29.90,ESE,103,0.0,0.0,84,0.00,,---,0.00,VWS V14.01,2013-01-27 04:31:00,
2013-01-26 21:37:00,32.7,28.4,29.90,ESE,103,0.0,0.0,84,0.00,,---,0.00,VWS V14.01,2013-01-27 04:37:00,
2013-01-26 21:43:00,32.7,28.4,29.90,ESE,103,0.0,0.0,84,0.00,,---,0.00,VWS V14.01,2013-01-27 04:43:00,
2013-01-26 21:48:00,32.5,28.0,29.90,ESE,103,0.0,0.0,83,0.00,,---,0.00,VWS V14.01,2013-01-27 04:48:00,
2013-01-26 21:53:00,32.5,28.2,29.90,ESE,103,0.0,0.0,84,0.00,,---,0.00,VWS V14.01,2013-01-27 04:53:00,
2013-01-26 21:59:00,32.5,28.0,29.90,ESE,103,0.0,0.0,83,0.00,,---,0.00,VWS V14.01,2013-01-27 04:59:00,
2013-01-26 22:03:00,32.4,27.8,29.90,ESE,103,0.0,0.0,83,0.00,,---,0.00,VWS V14.01,2013-01-27 05:03:00,
2013-01-26 22:05:00,32.4,27.8,29.90,ESE,103,0.0,0.0,83,0.00,,---,0.00,VWS V14.01,2013-01-27 05:05:00,
2013-01-26 22:07:00,32.2,27.6,29.90,ESE,103,0.0,0.0,83,0.00,,---,0.00,VWS V14.01,2013-01-27 05:07:00,
2013-01-26 22:08:00,32.2,27.6,29.90,ESE,103,0.0,0.0,83,0.00,,---,0.00,VWS V14.01,2013-01-27 05:08:00,
2013-01-26 22:13:00,32.2,27.6,29.90,ESE,103,0.0,0.0,83,0.00,,---,0.00,VWS V14.01,2013-01-27 05:13:00,
2013-01-26 22:18:00,32.2,27.6,29.90,East,96,0.0,0.0,83,0.00,,---,0.00,VWS V14.01,2013-01-27 05:18:00,
2013-01-26 22:24:00,32.2,27.6,29.90,East,96,0.0,0.0,83,0.00,,---,0.00,VWS V14.01,2013-01-27 05:24:00,
2013-01-26 22:31:00,32.2,27.6,29.90,East,96,0.0,0.0,83,0.00,,---,0.00,VWS V14.01,2013-01-27 05:31:00,
2013-01-26 22:36:00,32.2,27.6,29.90,East,96,0.0,0.0,83,0.00,,---,0.00,VWS V14.01,2013-01-27 05:36:00,
2013-01-26 22:41:00,32.0,27.4,29.90,East,96,0.0,0.0,83,0.00,,---,0.00,VWS V14.01,2013-01-27 05:41:00,
2013-01-26 22:46:00,32.0,27.4,29.90,East,96,0.0,0.0,83,0.00,,---,0.00,VWS V14.01,2013-01-27 05:46:00,
2013-01-26 22:51:00,31.8,27.3,29.90,East,96,0.0,0.0,83,0.00,,---,0.00,VWS V14.01,2013-01-27 05:51:00,
2013-01-26 22:57:00,31.8,27.3,29.90,East,96,0.0,0.0,83,0.00,,---,0.00,VWS V14.01,2013-01-27 05:57:00,
2013-01-26 23:02:00,31.8,27.3,29.90,East,96,0.0,0.0,83,0.00,,---,0.00,VWS V14.01,2013-01-27 06:02:00,
2013-01-26 23:08:00,31.8,27.3,29.90,East,96,0.0,0.0,83,0.00,,---,0.00,VWS V14.01,2013-01-27 06:08:00,
2013-01-26 23:13:00,31.6,27.1,29.90,NNE,18,0.0,0.0,83,0.00,,---,0.00,VWS V14.01,2013-01-27 06:13:00,
2013-01-26 23:19:00,31.6,27.1,29.90,NNE,24,0.0,0.0,83,0.00,,---,0.00,VWS V14.01,2013-01-27 06:19:00,
2013-01-26 23:24:00,31.5,26.9,29.90,NNE,24,0.0,0.0,83,0.00,,---,0.00,VWS V14.01,2013-01-27 06:24:00,
2013-01-26 23:30:00,31.5,26.9,29.90,NNE,23,0.0,0.0,83,0.00,,---,0.00,VWS V14.01,2013-01-27 06:30:00,
2013-01-26 23:35:00,31.5,26.9,29.90,NNE,23,0.0,0.0,83,0.00,,---,0.00,VWS V14.01,2013-01-27 06:35:00,
2013-01-26 23:41:00,31.3,26.7,29.90,NNE,23,0.0,0.0,83,0.00,,---,0.00,VWS V14.01,2013-01-27 06:41:00,
2013-01-26 23:47:00,31.3,26.7,29.90,NNE,23,0.0,0.0,83,0.00,,---,0.00,VWS V14.01,2013-01-27 06:47:00,
2013-01-26 23:52:00,31.3,26.4,29.90,NNE,23,0.0,0.0,82,0.00,,---,0.00,VWS V14.01,2013-01-27 06:52:00,
2013-01-26 23:57:00,31.1,26.3,29.90,NNE,23,0.0,0.0,82,0.00,,---,0.00,VWS V14.01,2013-01-27 06:57:00,